User: anonymous   Login
Location: Unspecified
(0.0000°N, 0.0000°E)
Time: 09:15:17
(UTC+00:00)
Language:

FAST 1 (USA 222) - Orbit

View from above orbital plane
View from above orbital plane
View from above satellite
View from above satellite

Ground track
Ground track

The orbit data is extracted from the following two-line orbital elements,

1 37227U 10062F   17212.92784868 0.00000550  00000-0  73411-4 0    08
2 37227  71.9659 138.6905 0010000  67.1970 292.8029 14.79498819    05
Epoch (UTC): 31 July 2017 22:16:06
Eccentricity: 0.0010000
inclination: 71.9659°
perigee height: 624 km
apogee height: 638 km
right ascension of ascending node: 138.6905°
argument of perigee: 67.1970°
revolutions per day: 14.79498819
mean anomaly at epoch: 292.8029°
orbit number at epoch: 0

The dashed part of the orbit path shows where the satellite is in the earth's shadow,  

DLR